Location: Newark
(22.3060°N, 114.2134°E)
Time: 22:32:55
(UTC+00:00)

Vanguard 2 - Pass Details

Date: 10 August 2021
Orbit: 553 x 2937 km, 32.9° (Epoch: 26 September)

Event Time Altitude Azimuth Distance (km) Brightness Sun altitude
Rises 00:56:48 0° 281° (W) 3,117 10.2 39.7°
Reaches altitude 10° 00:59:02 10° 270° (W) 2,383 9.7 40.2°
Maximum altitude 01:04:03 33° 207° (SSW) 1,693 9.4 41.4°
Drops below altitude 10° 01:11:38 10° 147° (SSE) 3,658 11.5 43.1°
Sets 01:15:58 0° 139° (SE) 5,083 12.1 44.1°
